[[{"header":{"parameterUnit":"m.s-1","parameterCategory":1,"la1":30.2991,"la2":30.254,"lo1":-89.0895,"lo2":-89.0444,"dy":0.0017,"dx":0.0017,"nx":28,"ny":28,"refTime":"2025-07-28T09:00:00:Z","depth":0,"parameterNumber":2,"parameterNumberName":"U-component_of_WINDS"},"data":[0,0,0,0,0,0,0,0,0,0,0,0,0,0,0,0,0,0,0,0,0,0,0,0,0,0,0,0,0,0,0,0,0,0,0,0,0,0,0,0,0,0,0,0,0,0,0,0,0,0,0,0,0,0,0,0,0,0,2.7122,2.7122,0,2.7155,2.7155,2.7156,2.7112,2.711,2.7109,2.7107,2.714,2.7142,2.7145,0,0,0,0,0,0,0,0,0,0,0,0,0,2.702,2.7022,2.7122,2.7122,2.7123,2.7155,2.7155,2.7156,2.7112,2.711,2.7108,2.7107,2.7139,2.7142,2.7145,0,0,0,0,0,0,0,0,0,0,0,0,0,2.706,2.7022,2.7122,2.7105,2.7103,2.7155,2.7155,2.7156,2.7113,2.711,2.7108,2.7106,2.7138,2.7142,2.7145,2.7215,0,0,2.7156,2.7158,0,0,0,0,0,0,0,0,2.7057,2.7063,2.7107,2.7106,2.7105,2.7127,2.7131,2.7176,2.7113,2.7109,2.7107,2.7104,2.7138,2.7141,2.7152,2.7216,2.7218,2.7156,2.7159,2.716,2.7161,0,0,0,0,0,0,0,2.7055,2.7062,2.7135,2.7107,2.7106,2.7095,2.7098,2.714,2.7136,2.7109,2.7106,2.7111,2.7137,2.7149,2.7153,2.7218,2.7156,2.7159,2.7162,2.7163,2.7342,2.7344,0,0,0,0,0,0,2.7054,2.706,2.7134,2.7136,2.7075,2.7099,2.7102,2.7122,2.7136,2.7135,2.7113,2.7109,2.7144,2.7149,2.7154,2.7237,2.716,2.7163,2.7165,2.7339,2.7342,2.7345,0,0,0,0,0,0,2.7052,2.7061,2.7132,2.7097,2.7105,2.7103,2.7126,2.7124,2.7137,2.7138,2.7137,2.7126,2.7143,2.7149,2.72,2.7237,2.7165,2.7168,2.7336,2.734,2.7344,2.7403,0,0,0,0,0,0,2.7049,2.706,2.7087,2.7098,2.7107,2.7179,2.7128,2.7126,2.7143,2.7138,2.7151,2.7151,2.7141,2.7195,2.7204,2.7241,2.7171,2.7333,2.7338,2.7342,2.7398,2.7409,2.7418,0,0,0,0,0,2.7046,2.7102,2.7088,2.7098,2.714,2.7181,2.7186,2.7175,2.7146,2.7173,2.7174,2.715,2.7232,2.7201,2.721,2.7249,2.733,2.7336,2.7342,2.7393,2.7406,2.7418,0,0,0,0,0,0,2.7094,2.7103,2.7088,2.7149,2.7165,2.7173,2.7206,2.7189,2.7212,2.7206,2.719,2.7194,2.7249,2.7254,2.7219,2.7317,2.7276,2.7284,2.7312,2.7325,2.7334,2.7332,2.7174,0,0,0,0,0,2.7112,2.7145,2.715,2.7204,2.7212,2.7208,2.7225,2.7215,2.723,2.7237,2.7241,2.7257,2.7286,2.7305,2.7332,2.7398,2.7401,2.7429,2.7439,2.7448,2.7455,2.7491,2.7504,2.7365,2.7365,2.7364,0,0,2.715,2.7158,2.718,2.7214,2.7225,2.7259,2.7214,2.7251,2.7277,2.7242,2.7291,2.7296,2.7312,2.7371,2.7397,2.7377,2.7494,2.7455,2.7462,2.7465,2.7499,2.7512,2.7524,2.7369,2.7368,2.7367,0,0,2.7235,2.7245,2.7291,2.7303,2.732,2.7317,2.7328,2.734,2.7342,2.7391,2.7366,2.7396,2.7446,2.7459,2.7472,2.7564,2.7543,2.7573,2.7625,2.7661,2.7672,2.7682,2.7715,2.7727,2.758,2.758,2.758,0,2.7279,2.733,2.7317,2.7357,2.7373,2.7344,2.7391,2.7403,2.7428,2.744,2.7416,2.748,2.7489,2.7551,2.7574,2.7585,2.7598,2.7571,2.7671,2.7681,2.769,2.7722,2.7734,2.7584,2.7583,2.7583,2.7583,0,2.7384,2.7419,2.7455,2.748,2.75,2.7544,2.7537,2.7559,2.7548,2.7547,2.7598,2.7608,2.7637,2.7651,2.7639,2.7712,2.7699,2.7674,2.7633,2.7707,2.7737,2.7749,2.7589,2.7588,2.7587,2.7586,0,0,2.7501,2.7519,2.7533,2.7545,2.7562,2.7589,2.7631,2.766,2.768,2.7698,2.7733,2.7777,2.7755,2.777,2.7759,2.7791,2.7864,2.7762,2.7762,2.7781,2.7946,2.7965,2.798,2.7851,2.7853,2.7855,2.7945,0,2.7587,2.766,2.765,2.7721,2.7754,2.7728,2.7764,2.7779,2.778,2.7808,2.7809,2.7841,2.7808,2.7817,2.7847,2.7849,2.7897,2.7842,2.7884,2.7885,2.7881,2.7995,2.8015,2.81,2.7957,2.7959,2.796,0,2.7697,2.7721,2.7795,2.7809,2.7822,2.7855,2.7882,2.7909,2.7925,2.7924,2.7941,2.7926,2.7968,2.7926,2.7985,2.7948,2.7964,2.7968,2.7971,2.7974,2.7927,2.8003,2.8127,2.814,2.7978,2.7977,2.7975,0,2.7777,2.7827,2.7878,2.7889,2.7905,2.7929,2.7937,2.7951,2.797,2.7992,2.8004,2.8032,2.8047,2.8068,2.8061,2.8031,2.8122,2.8078,2.8122,2.8122,2.8142,2.8141,2.8272,2.8152,2.8152,2.8152,2.8151,0,2.7874,2.7921,2.7914,2.7945,2.7997,2.7985,2.8037,2.8041,2.8054,2.8086,2.8064,2.8095,2.8083,2.8113,2.8107,2.8157,2.8164,2.8164,2.8162,2.8167,2.8167,2.8177,2.8171,2.8155,2.8154,2.8154,2.8153,0,2.7972,2.7968,2.8023,2.8034,2.8038,2.8076,2.8086,2.8116,2.8115,2.8156,2.8165,2.8164,2.8199,2.8193,2.8231,2.8227,2.829,2.828,2.8285,2.8283,2.8327,2.8323,2.8469,2.8488,2.8356,2.8357,2.8358,0,2.8035,2.807,2.8086,2.8106,2.8116,2.8149,2.8168,2.8158,2.8178,2.82,2.8228,2.826,2.8285,2.8341,2.8344,2.8373,2.8365,2.8414,2.8369,2.8372,2.8366,2.8365,2.8369,2.8423,2.8424,2.8426,2.8427,0,2.8147,2.8144,2.8173,2.8201,2.8225,2.8246,2.8266,2.8284,2.8275,2.83,2.8335,2.8355,2.8394,2.8426,2.8454,2.8461,2.8443,2.8441,2.8453,2.8458,2.8459,2.846,2.831,2.8437,2.8436,2.8436,2.8435,2.8435,2.823,2.8261,2.8277,2.831,2.8324,2.8343,2.8372,2.8375,2.8404,2.8436,2.8428,2.8468,2.8484,2.8519,2.853,2.8561,2.8543,2.856,2.8564,2.8569,2.8575,2.8454,2.8566,2.8566,2.8565,2.8565,2.8565,0,2.8342,2.8352,2.8382,2.8411,2.8437,2.8417,2.8438,2.8461,2.8497,2.8513,2.8539,2.858,2.8612,2.8618,2.8648,2.8672,2.8664,2.868,2.8679,2.8681,2.8588,2.8576,2.8686,2.8686,2.8686,2.8686,2.8686,2.8686,2.8404,2.8456,2.8455,2.8513,2.8522,2.8561,2.8575,2.8592,2.8606,2.8653,2.8679,2.8683,2.8696,2.8727,2.8755,2.8756,2.8769,2.8788,2.8786,2.8699,2.8687,2.8676,2.8664,2.8791,2.8791,2.8876,2.8877,2.8877]},{"header":{"parameterUnit":"m.s-1","parameterCategory":1,"la1":30.2991,"la2":30.254,"lo1":-89.0895,"lo2":-89.0444,"dy":0.0017,"dx":0.0017,"nx":28,"ny":28,"refTime":"2025-07-28T09:00:00:Z","depth":0,"parameterNumber":3,"parameterNumberName":"V-component_of_WINDS"},"data":[0,0,0,0,0,0,0,0,0,0,0,0,0,0,0,0,0,0,0,0,0,0,0,0,0,0,0,0,0,0,0,0,0,0,0,0,0,0,0,0,0,0,0,0,0,0,0,0,0,0,0,0,0,0,0,0,0,0,-2.546,-2.5461,0,-2.5494,-2.5495,-2.5495,-2.5476,-2.5475,-2.5474,-2.5473,-2.5506,-2.5508,-2.551,0,0,0,0,0,0,0,0,0,0,0,0,0,-2.5379,-2.538,-2.546,-2.5461,-2.5461,-2.5494,-2.5495,-2.5495,-2.5476,-2.5475,-2.5474,-2.5473,-2.5506,-2.5508,-2.551,0,0,0,0,0,0,0,0,0,0,0,0,0,-2.5414,-2.5381,-2.546,-2.5456,-2.5456,-2.5494,-2.5495,-2.5495,-2.5476,-2.5475,-2.5474,-2.5472,-2.5505,-2.5508,-2.551,-2.5555,0,0,-2.5518,-2.5519,0,0,0,0,0,0,0,0,-2.5412,-2.5417,-2.5456,-2.5456,-2.5456,-2.5479,-2.5478,-2.5515,-2.5477,-2.5468,-2.5473,-2.5472,-2.5498,-2.5502,-2.5511,-2.5556,-2.5558,-2.5519,-2.552,-2.5521,-2.5522,0,0,0,0,0,0,0,-2.5409,-2.5415,-2.5474,-2.5457,-2.5457,-2.5452,-2.5455,-2.5485,-2.5491,-2.5469,-2.5468,-2.5472,-2.5498,-2.5508,-2.5512,-2.5558,-2.5519,-2.5521,-2.5522,-2.5523,-2.5643,-2.5645,0,0,0,0,0,0,-2.5407,-2.5413,-2.5473,-2.5475,-2.543,-2.5455,-2.5458,-2.5473,-2.549,-2.5492,-2.5473,-2.5471,-2.5505,-2.5509,-2.5513,-2.5567,-2.5521,-2.5524,-2.5525,-2.5642,-2.5644,-2.5645,0,0,0,0,0,0,-2.5406,-2.5413,-2.5471,-2.5444,-2.5451,-2.5457,-2.5474,-2.5475,-2.5485,-2.5494,-2.5495,-2.5483,-2.5504,-2.5509,-2.5545,-2.5568,-2.5525,-2.5527,-2.564,-2.5642,-2.5644,-2.5675,0,0,0,0,0,0,-2.5403,-2.5412,-2.5429,-2.5444,-2.5452,-2.5503,-2.5476,-2.5476,-2.549,-2.5487,-2.5503,-2.5504,-2.5503,-2.5541,-2.5548,-2.5571,-2.5529,-2.5638,-2.5641,-2.5644,-2.5672,-2.5678,-2.5684,0,0,0,0,0,-2.5401,-2.5436,-2.543,-2.5437,-2.5474,-2.5504,-2.5509,-2.5508,-2.5492,-2.5509,-2.5515,-2.5503,-2.5564,-2.5545,-2.5552,-2.5576,-2.5636,-2.564,-2.5643,-2.567,-2.5677,-2.5684,0,0,0,0,0,0,-2.5422,-2.5438,-2.5431,-2.5473,-2.5488,-2.5501,-2.5523,-2.5515,-2.5534,-2.5531,-2.5528,-2.5532,-2.557,-2.5576,-2.5555,-2.5621,-2.5598,-2.5603,-2.5615,-2.5623,-2.5628,-2.5626,-2.5532,0,0,0,0,0,-2.5432,-2.5456,-2.5468,-2.5503,-2.5511,-2.5516,-2.5529,-2.5527,-2.5542,-2.5548,-2.5556,-2.5571,-2.5593,-2.5608,-2.5629,-2.5673,-2.5677,-2.5694,-2.5699,-2.5704,-2.5709,-2.5734,-2.5742,-2.5657,-2.5657,-2.5657,0,0,-2.5452,-2.5463,-2.5479,-2.5508,-2.5519,-2.5544,-2.5521,-2.5548,-2.5567,-2.5552,-2.5587,-2.5593,-2.561,-2.565,-2.5668,-2.5657,-2.5733,-2.5709,-2.5712,-2.5714,-2.5739,-2.5747,-2.5754,-2.566,-2.5659,-2.5659,0,0,-2.5502,-2.5512,-2.5544,-2.5556,-2.5574,-2.5577,-2.5584,-2.5599,-2.5604,-2.5639,-2.5629,-2.5651,-2.5689,-2.5702,-2.5713,-2.577,-2.5761,-2.5777,-2.5807,-2.5832,-2.5838,-2.5844,-2.5866,-2.5873,-2.5781,-2.5781,-2.5781,0,-2.5524,-2.5562,-2.556,-2.5589,-2.5603,-2.5591,-2.5623,-2.5635,-2.5658,-2.5668,-2.5655,-2.5705,-2.5715,-2.5759,-2.5773,-2.5782,-2.5791,-2.5775,-2.5837,-2.5843,-2.5849,-2.5869,-2.5877,-2.5783,-2.5783,-2.5783,-2.5783,0,-2.559,-2.5616,-2.5639,-2.5664,-2.568,-2.571,-2.5713,-2.573,-2.5726,-2.5731,-2.5768,-2.578,-2.5804,-2.5814,-2.581,-2.5858,-2.5851,-2.5838,-2.5814,-2.5859,-2.5878,-2.5886,-2.5786,-2.5785,-2.5785,-2.5784,0,0,-2.5653,-2.5678,-2.5686,-2.5698,-2.5717,-2.5738,-2.5768,-2.5792,-2.5807,-2.5824,-2.5849,-2.5883,-2.5872,-2.5885,-2.5883,-2.5905,-2.595,-2.5889,-2.5889,-2.5901,-2.6005,-2.6016,-2.6025,-2.5944,-2.5946,-2.5947,-2.6004,0,-2.5705,-2.5758,-2.5759,-2.5808,-2.5833,-2.5823,-2.5849,-2.5864,-2.587,-2.5892,-2.5897,-2.5922,-2.5904,-2.5913,-2.5933,-2.594,-2.5971,-2.5936,-2.5969,-2.597,-2.5966,-2.6035,-2.6045,-2.6099,-2.6012,-2.6013,-2.6014,0,-2.5773,-2.5793,-2.5845,-2.5863,-2.5873,-2.5897,-2.592,-2.5941,-2.5958,-2.5961,-2.5976,-2.5972,-2.6003,-2.5978,-2.6022,-2.5998,-2.6011,-2.6017,-2.6019,-2.6022,-2.5995,-2.6041,-2.6116,-2.6124,-2.6025,-2.6025,-2.6024,0,-2.5816,-2.5856,-2.5893,-2.5903,-2.5924,-2.5941,-2.595,-2.5966,-2.5981,-2.6002,-2.6012,-2.6035,-2.6048,-2.6066,-2.6068,-2.605,-2.6112,-2.6088,-2.6116,-2.6116,-2.613,-2.6129,-2.6209,-2.6137,-2.6137,-2.6137,-2.6137,0,-2.5874,-2.5907,-2.5913,-2.5935,-2.5972,-2.5972,-2.6008,-2.6016,-2.603,-2.6054,-2.6047,-2.607,-2.607,-2.6094,-2.6096,-2.6132,-2.6138,-2.6141,-2.6141,-2.6142,-2.6142,-2.6152,-2.6148,-2.6139,-2.6139,-2.6138,-2.6138,0,-2.5928,-2.5934,-2.5973,-2.599,-2.5995,-2.6022,-2.6036,-2.6058,-2.6063,-2.6094,-2.6102,-2.611,-2.6137,-2.6141,-2.6173,-2.6174,-2.6219,-2.6214,-2.6213,-2.6213,-2.6241,-2.6239,-2.6331,-2.6343,-2.6262,-2.6263,-2.6264,0,-2.5966,-2.5991,-2.6011,-2.6027,-2.6038,-2.6064,-2.608,-2.6081,-2.6098,-2.612,-2.614,-2.6167,-2.6189,-2.6233,-2.6242,-2.6267,-2.6264,-2.6294,-2.6267,-2.6268,-2.6266,-2.6265,-2.6268,-2.63,-2.6301,-2.6301,-2.6302,0,-2.6032,-2.6034,-2.6057,-2.6082,-2.6102,-2.6122,-2.614,-2.6154,-2.6157,-2.6177,-2.6206,-2.6223,-2.6256,-2.6284,-2.6308,-2.6318,-2.6311,-2.631,-2.6318,-2.632,-2.6319,-2.6321,-2.6228,-2.6308,-2.6308,-2.6307,-2.6307,-2.6306,-2.608,-2.6102,-2.612,-2.6147,-2.6162,-2.6179,-2.6202,-2.621,-2.6234,-2.6262,-2.6261,-2.6293,-2.6311,-2.6344,-2.6356,-2.6381,-2.6371,-2.6382,-2.6385,-2.6388,-2.6392,-2.6314,-2.6385,-2.6385,-2.6385,-2.6385,-2.6385,0,-2.6147,-2.6158,-2.6183,-2.621,-2.6231,-2.6223,-2.6244,-2.6262,-2.6291,-2.6308,-2.633,-2.6364,-2.6391,-2.6403,-2.6429,-2.6447,-2.6445,-2.6454,-2.6453,-2.6456,-2.6398,-2.6389,-2.6456,-2.6456,-2.6456,-2.6456,-2.6456,-2.6456,-2.6184,-2.6222,-2.6226,-2.6272,-2.6283,-2.6315,-2.6328,-2.6344,-2.6358,-2.6397,-2.6419,-2.6427,-2.6442,-2.647,-2.6495,-2.6498,-2.6508,-2.652,-2.6521,-2.6467,-2.646,-2.6453,-2.6445,-2.6522,-2.6522,-2.6577,-2.6577,-2.6578]}]]